Location: Anumalkud?ru
(16.4847°N, 80.6636°E)
Time: 22:45:29
(UTC+00:00)

GPS 2-12 Rocket1 - Pass Details

Date: 11 April 2026
Orbit: 560 x 613 km, 20.0° (Epoch: 9 May)

Event Time Altitude Azimuth Distance (km) Brightness Sun altitude
Exits shadow 23:36:32 14° 226° (SW) 1,594 4.7 -12.1°
Maximum altitude 23:39:50 38° 162° (SSE) 852 3.8 -11.3°
Drops below altitude 10° 23:43:48 10° 93° (E) 1,832 6.9 -10.4°
Sets 23:46:12 0° 85° (E) 2,731 8.5 -9.9°
